Flag for Turkey Weather past 2 weeks in Gaziantep, Turkey

Now
93 °F

Scattered clouds.


Feels Like: 90 °F
Forecast: 64 / 96 °F
Wind: 6 mph from Southeast

Location: Gaziantep Airport

Current Time: Sep 5, 2015 at 1:58:46 PM

Latest Report: Sep 5, 2015 at 1:20 PM


Visibility: N/A

Pressure: 29.95 "Hg (27.23 "Hg at 856m altitude)

Humidity: 21%

Dew point: 48 °F

Location of GaziantepLocation

Historic Weather in Gaziantep — Graph

°F

Gaziantep temperature yesterday

Maximum temperature yesterday: 93 °F (at 3:20 PM)
Minimum temperature yesterday: 61 °F (at 4:50 AM)
Average temperature yesterday: 79 °F

Past Weeks' High & Low Weather Summary

 TemperatureHumidityPressure
High102 °F (Aug 22, 2:50 PM)73% (Aug 22, 4:50 AM)29.98 "Hg (Aug 22, 4:50 AM)
Low59 °F (Aug 30, 3:50 AM)9% (Sep 3, 2:20 PM)29.65 "Hg (Aug 23, 4:50 PM)
Average82 °F34%29.83 "Hg
* Reported Aug 21 12:20 PM — Sep 5 12:20 PM, Gaziantep, Weather by CustomWeather, © 2015

Note: Actual official high and low records may vary slightly from our data, if they occured in-between our weather recording intervals... More about our weather records

Advertising

Gaziantep weather history for previous 24 hours

 ConditionsComfort  
Time TempWeatherWind HumidityBarometerVisibility
12:20 PM
Sat, Sep 5
91 °FScattered clouds.5 mph26%29.95 "HgN/A
11:50 AM90 °FScattered clouds.5 mph27%29.95 "HgN/A
11:20 AM90 °FScattered clouds.6 mph26%29.98 "HgN/A
10:50 AM90 °FPassing clouds.6 mph26%29.95 "HgN/A
10:20 AM90 °FScattered clouds.1 mph27%29.95 "HgN/A
9:50 AM86 °FScattered clouds.7 mph35%29.95 "HgN/A
9:20 AM82 °FScattered clouds.5 mph48%29.95 "HgN/A
8:50 AM77 °FScattered clouds.No wind54%29.95 "HgN/A
8:20 AM72 °FScattered clouds.No wind65%29.95 "HgN/A
7:50 AM72 °FScattered clouds.1 mph61%29.95 "HgN/A
7:20 AM70 °FScattered clouds.1 mph60%29.95 "HgN/A
6:50 AM66 °FPassing clouds.No wind64%29.92 "HgN/A
6:20 AM66 °FPassing clouds.No wind64%29.92 "HgN/A
5:50 AM64 °FPassing clouds.No wind68%29.92 "HgN/A
5:20 AM66 °FClear.3 mph64%29.92 "Hg10 mi
4:50 AM64 °FClear.2 mph64%29.92 "Hg10 mi
4:20 AM68 °FClear.1 mph60%29.92 "Hg10 mi
3:50 AM68 °FClear.No wind60%29.92 "Hg10 mi
3:20 AM70 °FClear.3 mph57%29.92 "Hg10 mi
2:50 AM66 °FPassing clouds.3 mph64%29.89 "HgN/A
2:20 AM68 °FClear.1 mph56%29.89 "Hg10 mi
1:50 AM66 °FClear.2 mph64%29.89 "Hg10 mi
1:20 AM70 °FClear.8 mph53%29.89 "Hg10 mi
12:20 AM72 °FClear.2 mph47%29.89 "Hg10 mi
11:50 PM
Fri, Sep 4
72 °FClear.3 mph47%29.89 "Hg10 mi
11:20 PM72 °FClear.2 mph47%29.92 "Hg10 mi
10:50 PM75 °FPassing clouds.5 mph39%29.89 "HgN/A
10:20 PM79 °FClear.12 mph34%29.89 "Hg10 mi
9:50 PM77 °FClear.13 mph42%29.89 "Hg10 mi
9:20 PM75 °FClear.3 mph41%29.92 "Hg10 mi
8:50 PM77 °FClear.5 mph42%29.92 "Hg10 mi
8:20 PM81 °FClear.9 mph37%29.89 "Hg10 mi
7:50 PM82 °FSunny.9 mph32%29.89 "Hg10 mi
7:20 PM84 °FSunny.13 mph29%29.89 "Hg10 mi
6:50 PM86 °FPassing clouds.7 mph24%29.89 "HgN/A
6:20 PM88 °FSunny.10 mph19%29.86 "Hg10 mi
5:50 PM90 °FSunny.10 mph17%29.86 "Hg10 mi
5:20 PM91 °FPassing clouds.10 mph17%29.86 "HgN/A
4:50 PM93 °FPassing clouds.10 mph17%29.86 "HgN/A
4:20 PM93 °FSunny.12 mph14%29.86 "Hg10 mi
3:50 PM93 °FPassing clouds.10 mph15%29.89 "HgN/A
3:20 PM93 °FSunny.9 mph15%29.89 "Hg10 mi
2:50 PM91 °FPassing clouds.9 mph17%29.89 "HgN/A
2:20 PM91 °FPassing clouds.9 mph15%29.89 "HgN/A
1:50 PM91 °FPassing clouds.12 mph14%29.89 "HgN/A
1:20 PM91 °FPassing clouds.10 mph12%29.89 "HgN/A
Weather by CustomWeather, © 2015

See weather overviewHow to use our weather pages